Moriarty, NM

4:40 PM MDT on April 22, 2018 (GMT -0600)
Moriarty

Weather History for K0E0 - October, 2012

Change the Weather History Date:

Thursday, October 4, 2012

  Actual Average (KABQ) Record (KABQ)
Temperature  
Mean Temperature 62 °F -  
Max Temperature 81 °F 76 °F 87 °F (1947)
Min Temperature 42 °F 49 °F 32 °F (1915)
Degree Days  
Heating Degree Days 4    
Growing Degree Days 12 (Base 50)    
Moisture  
Dew Point 28 °F    
Average Humidity 32    
Maximum Humidity 54    
Minimum Humidity 13    
Precipitation  
Precipitation 0.00 in - - ()
Sea Level Pressure  
Sea Level Pressure 30.25 in    
Wind  
Wind Speed 6 mph (South)    
Max Wind Speed 21 mph    
Max Gust Speed 29 mph    
Visibility 10 miles    
Events      
Averages and records for this station are not official NWS values.
T = Trace of Precipitation, MM = Missing Value Source: NWS Daily Summary

Daily Weather History Graph

Daily Weather History Graph

Search for Another Location

Airport or City:

Astronomy

Oct. 04, 2012 Rise Set
Actual Time 7:01 AM MDT 6:43 PM MDT
Civil Twilight 6:36 AM MDT 7:08 PM MDT
Nautical Twilight 6:06 AM MDT 7:37 PM MDT
Astronomical Twilight 5:37 AM MDT 8:06 PM MDT
Moon 9:31 PM MDT (10/4) 11:10 AM MDT (10/4)
Length of Visible Light 12h 32m
Length of Day
11h 41m
Waning Gibbous, 81% of the Moon is Illuminated
Oct 4
Waning Gibbous
Oct 8
Last Quarter
Oct 15
New
Oct 21
First Quarter
Oct 29
Full

Hourly Weather History & Observations

Time (MDT) Temp. Windchill Dew Point Humidity Pressure Visibility Wind Dir Wind Speed Gust Speed Precip Events Conditions
12:15 AM 52.2 °F - 23.0 °F 32% 30.20 in 10.0 mi NE 5.8 mph - N/A   Clear
12:35 AM 51.1 °F - 23.5 °F 34% 30.20 in 10.0 mi Calm Calm - N/A   Clear
12:55 AM 49.3 °F - 23.4 °F 36% 30.20 in 10.0 mi NE 3.5 mph - N/A   Clear
1:15 AM 47.1 °F - 24.4 °F 41% 30.21 in 10.0 mi Calm Calm - N/A   Clear
1:35 AM 49.1 °F - 21.6 °F 34% 30.22 in 10.0 mi South 5.8 mph - N/A   Clear
1:55 AM 46.2 °F 44.1 °F 23.2 °F 40% 30.22 in 10.0 mi East 4.6 mph - N/A   Clear
2:15 AM 46.8 °F - 23.9 °F 41% 30.22 in 10.0 mi South 4.6 mph - N/A   Clear
2:35 AM 46.0 °F 43.9 °F 23.4 °F 41% 30.23 in 10.0 mi SSE 4.6 mph - N/A   Clear
2:55 AM 44.1 °F - 24.4 °F 46% 30.23 in 10.0 mi Calm Calm - N/A   Clear
3:15 AM 47.3 °F - 22.6 °F 38% 30.23 in 10.0 mi Calm Calm - N/A   Clear
3:35 AM 42.3 °F 40.5 °F 24.3 °F 49% 30.23 in 10.0 mi NW 3.5 mph - N/A   Clear
3:55 AM 43.2 °F - 24.4 °F 48% 30.24 in 10.0 mi Calm Calm - N/A   Clear
4:15 AM 52.9 °F - 22.3 °F 30% 30.25 in 10.0 mi Calm Calm - N/A   Clear
4:35 AM 51.8 °F - 23.0 °F 33% 30.25 in 10.0 mi SW 3.5 mph - N/A   Clear
4:55 AM 45.9 °F - 24.6 °F 43% 30.25 in 10.0 mi Calm Calm - N/A   Clear
5:15 AM 47.1 °F - 25.0 °F 42% 30.26 in 10.0 mi Calm Calm - N/A   Clear
5:35 AM 54.0 °F - 24.4 °F 32% 30.26 in 10.0 mi SW 4.6 mph - N/A   Clear
5:55 AM 43.2 °F 39.0 °F 26.1 °F 51% 30.27 in 10.0 mi SE 6.9 mph - N/A   Clear
6:15 AM 46.6 °F - 25.2 °F 43% 30.28 in 10.0 mi East 3.5 mph - N/A   Clear
6:35 AM 44.6 °F 43.1 °F 25.9 °F 48% 30.28 in 10.0 mi East 3.5 mph - N/A   Clear
6:55 AM 46.4 °F 42.9 °F 26.8 °F 46% 30.29 in 10.0 mi East 6.9 mph - N/A   Clear
7:15 AM 46.4 °F 45.2 °F 27.9 °F 48% 30.30 in 10.0 mi East 3.5 mph - N/A   Clear
7:35 AM 46.8 °F - 28.8 °F 50% 30.31 in 10.0 mi East 3.5 mph - N/A   Clear
7:55 AM 50.4 °F - 30.9 °F 47% 30.31 in 10.0 mi ESE 3.5 mph - N/A   Clear
8:15 AM 51.8 °F - 32.0 °F 47% 30.33 in 7.0 mi Calm Calm - N/A   Clear
8:35 AM 53.8 °F - 32.0 °F 44% 30.33 in 10.0 mi SW 3.5 mph - N/A   Clear
9:15 AM 56.8 °F - 32.2 °F 39% 30.34 in 10.0 mi SW 4.6 mph - N/A   Clear
9:35 AM 58.8 °F - 32.9 °F 38% 30.34 in 10.0 mi SSW 5.8 mph - N/A   Clear
9:55 AM 61.0 °F - 32.7 °F 35% 30.34 in 10.0 mi South 10.4 mph - N/A   Clear
10:35 AM 63.7 °F - 32.5 °F 31% 30.34 in 10.0 mi South 9.2 mph - N/A   Clear
10:55 AM 64.6 °F - 32.7 °F 30% 30.34 in 10.0 mi South 12.7 mph 17.3 mph N/A   Clear
11:15 AM 65.7 °F - 32.2 °F 29% 30.34 in 7.0 mi South 12.7 mph 17.3 mph N/A   Clear
11:35 AM 66.4 °F - 32.0 °F 28% 30.34 in 10.0 mi South 13.8 mph - N/A   Clear
11:55 AM 66.7 °F - 32.0 °F 27% 30.33 in 10.0 mi South 13.8 mph 18.4 mph N/A   Clear
12:15 PM 67.6 °F - 32.2 °F 27% 30.33 in 7.0 mi SSE 12.7 mph 18.4 mph N/A   Scattered Clouds
12:35 PM 69.6 °F - 32.7 °F 26% 30.32 in 7.0 mi SSE 13.8 mph 18.4 mph N/A   Scattered Clouds
12:55 PM 69.8 °F - 32.2 °F 25% 30.31 in 10.0 mi South 15.0 mph 18.4 mph N/A   Scattered Clouds
1:15 PM 71.2 °F - 32.5 °F 24% 30.29 in 10.0 mi SSE 13.8 mph 20.7 mph N/A   Clear
1:35 PM 73.0 °F - 32.7 °F 23% 30.28 in 10.0 mi South 12.7 mph 18.4 mph N/A   Clear
1:55 PM 74.5 °F - 32.5 °F 22% 30.27 in 10.0 mi South 13.8 mph 18.4 mph N/A   Scattered Clouds
2:15 PM 76.1 °F - 32.2 °F 20% 30.25 in 7.0 mi SSE 11.5 mph 19.6 mph N/A   Scattered Clouds
2:35 PM 78.1 °F - 31.6 °F 18% 30.24 in 10.0 mi South 12.7 mph 18.4 mph N/A   Clear
2:55 PM 78.8 °F - 31.1 °F 18% 30.23 in 10.0 mi South 12.7 mph 20.7 mph N/A   Clear
3:15 PM 79.9 °F - 29.3 °F 16% 30.22 in 10.0 mi SW 11.5 mph 16.1 mph N/A   Clear
3:35 PM 81.7 °F - 27.3 °F 14% 30.22 in 10.0 mi SW 19.6 mph 25.3 mph N/A   Clear
3:55 PM 81.3 °F - 26.6 °F 13% 30.22 in 10.0 mi WSW 20.7 mph 28.8 mph N/A   Clear
4:15 PM 81.5 °F - 26.1 °F 13% 30.21 in 10.0 mi SW 15.0 mph 26.5 mph N/A   Clear
4:35 PM 81.0 °F - 25.9 °F 13% 30.20 in 10.0 mi WSW 18.4 mph 27.6 mph N/A   Clear
4:55 PM 80.8 °F - 26.1 °F 13% 30.19 in 10.0 mi SW 19.6 mph 26.5 mph N/A   Clear
5:15 PM 79.9 °F - 26.2 °F 14% 30.19 in 7.0 mi SW 17.3 mph 26.5 mph N/A   Clear
5:35 PM 79.5 °F - 25.7 °F 14% 30.19 in 10.0 mi SW 13.8 mph 21.9 mph N/A   Clear
5:55 PM 78.4 °F - 25.7 °F 14% 30.19 in 10.0 mi SW 15.0 mph 20.7 mph N/A   Clear
6:15 PM 76.3 °F - 24.8 °F 15% 30.19 in 10.0 mi SW 12.7 mph - N/A   Clear
6:35 PM 73.8 °F - 23.5 °F 15% 30.19 in 10.0 mi SW 10.4 mph - N/A   Clear
7:15 PM 65.1 °F - 23.9 °F 21% 30.19 in 10.0 mi SSW 6.9 mph - N/A   Clear
7:35 PM 62.6 °F - 23.5 °F 23% 30.19 in 10.0 mi SW 4.6 mph - N/A   Clear
7:55 PM 60.1 °F - 23.7 °F 25% 30.19 in 10.0 mi SSW 4.6 mph - N/A   Clear
8:15 PM 59.0 °F - 24.1 °F 26% 30.19 in 10.0 mi SSW 6.9 mph - N/A   Clear
8:35 PM 57.2 °F - 25.2 °F 29% 30.19 in 10.0 mi South 3.5 mph - N/A   Clear
8:55 PM 56.1 °F - 25.5 °F 31% 30.20 in 10.0 mi ESE 4.6 mph - N/A   Clear
9:15 PM 59.2 °F - 28.6 °F 31% 30.20 in 10.0 mi ESE 6.9 mph - N/A   Clear
9:35 PM 58.1 °F - 31.1 °F 36% 30.20 in 10.0 mi SE 10.4 mph - N/A   Clear
9:55 PM 59.2 °F - 30.9 °F 34% 30.19 in 10.0 mi SE 6.9 mph - N/A   Clear
10:15 PM 58.5 °F - 30.9 °F 35% 30.19 in 10.0 mi SE 9.2 mph - N/A   Clear
10:35 PM 58.5 °F - 31.1 °F 35% 30.20 in 10.0 mi SE 10.4 mph - N/A   Clear
10:55 PM 57.6 °F - 30.2 °F 35% 30.20 in 10.0 mi WSW 3.5 mph - N/A   Clear
11:15 PM 51.3 °F - 31.3 °F 46% 30.20 in 10.0 mi WSW 6.9 mph - N/A   Clear
11:35 PM 49.5 °F - 31.6 °F 50% 30.21 in 10.0 mi SW 6.9 mph - N/A   Clear
11:55 PM 47.8 °F - 31.8 °F 54% 30.21 in 10.0 mi NE 4.6 mph - N/A   Clear